Weather History for KAIA - October, 2014

Change the Weather History Date:

Thursday, October 16, 2014

  Actual Average Record
Temperature  
Mean Temperature 50 °F 46 °F  
Max Temperature 65 °F 62 °F 85 °F (1932)
Min Temperature 35 °F 29 °F 16 °F (2001)
Degree Days  
Heating Degree Days 15 19  
Month to date heating degree days 222 261  
Since 1 July heating degree days 410 506  
Cooling Degree Days 0 0  
Month to date cooling degree days 0 0  
Year to date cooling degree days 499 563  
Moisture  
Dew Point 30 °F    
Average Humidity 55    
Maximum Humidity 85    
Minimum Humidity 24    
Precipitation  
Precipitation 0.00 in 0.04 in 0.70 in (1915)
Month to date precipitation 0.12 0.70  
Year to date precipitation 17.39 14.50  
Sea Level Pressure  
Sea Level Pressure 29.93 in    
Wind  
Wind Speed 12 mph (NW)    
Max Wind Speed 24 mph    
Max Gust Speed 31 mph    
Visibility 10 miles    
Events      
T = Trace of Precipitation, MM = Missing Value Source: NWS Daily Summary

Daily Weather History Graph

Daily Weather History Graph

Search for Another Location

Airport or City:

Trip Planner

Search our weather history database for the weather conditions in past years. The results will help you decide how hot, cold, wet, or windy it might be!

Date:

Astronomy

Oct. 16, 2014 Rise Set
Actual Time 7:04 AM MDT 6:07 PM MDT
Civil Twilight 6:36 AM MDT 6:36 PM MDT
Nautical Twilight 6:04 AM MDT 7:08 PM MDT
Astronomical Twilight 5:31 AM MDT 7:40 PM MDT
Moon 12:10 AM MDT (10/16) 2:26 PM MDT (10/16)
Length of Visible Light 11h 59m
Length of Day
11h 02m
Last Quarter, 41% of the Moon is Illuminated
Oct 16
Last Quarter
Oct 23
New
Oct 30
First Quarter
Nov 6
Full
Nov 14
Last Quarter

Hourly Weather History & Observations

Time (MDT) Temp. Windchill Dew Point Humidity Pressure Visibility Wind Dir Wind Speed Gust Speed Precip Events Conditions
12:53 AM 39.0 °F 32.8 °F 35.1 °F 86% 29.73 in 10.0 mi WNW 9.2 mph - N/A   Clear
1:53 AM 41.0 °F 35.8 °F 34.0 °F 76% 29.73 in 10.0 mi West 8.1 mph - N/A   Clear
2:53 AM 42.8 °F 36.2 °F 33.8 °F 70% 29.82 in 10.0 mi West 12.7 mph - N/A   Clear
3:53 AM 39.0 °F 31.8 °F 32.0 °F 76% 29.77 in 10.0 mi West 11.5 mph - N/A   Clear
4:53 AM 42.1 °F 36.1 °F 32.0 °F 67% 29.79 in 10.0 mi WNW 10.4 mph - N/A   Clear
5:53 AM 39.9 °F 35.8 °F 30.9 °F 70% 29.87 in 10.0 mi WSW 5.8 mph - N/A   Clear
6:25 AM 55.0 °F - 32.0 °F 42% 29.92 in 10.0 mi NW 20.7 mph - N/A   Clear
6:53 AM 54.0 °F - 33.1 °F 45% 29.87 in 10.0 mi NW 19.6 mph 28.8 mph N/A   Clear
7:53 AM 55.0 °F - 33.1 °F 43% 29.90 in 10.0 mi NW 21.9 mph 28.8 mph N/A   Clear
8:53 AM 54.0 °F - 30.9 °F 41% 29.96 in 10.0 mi NW 17.3 mph - N/A   Clear
9:53 AM 55.9 °F - 28.9 °F 36% 29.98 in 10.0 mi NW 13.8 mph - N/A   Clear
10:53 AM 61.0 °F - 28.0 °F 29% 29.97 in 10.0 mi NNW 17.3 mph 26.5 mph N/A   Clear
11:53 AM 61.0 °F - 27.0 °F 27% 29.99 in 10.0 mi NNW 19.6 mph 31.1 mph N/A   Clear
12:53 PM 62.1 °F - 28.0 °F 28% 29.98 in 10.0 mi NW 13.8 mph 25.3 mph N/A   Clear
1:53 PM 64.0 °F - 28.0 °F 26% 29.96 in 10.0 mi NNW 13.8 mph 24.2 mph N/A   Clear
2:53 PM 64.0 °F - 28.0 °F 26% 29.95 in 10.0 mi NNW 12.7 mph - N/A   Clear
3:53 PM 64.0 °F - 27.0 °F 25% 29.96 in 10.0 mi NW 16.1 mph 23.0 mph N/A   Clear
4:53 PM 62.1 °F - 26.1 °F 25% 29.96 in 10.0 mi NNW 18.4 mph - N/A   Clear
5:53 PM 55.9 °F - 28.9 °F 36% 29.99 in 10.0 mi NNW 9.2 mph - N/A   Clear
6:53 PM 45.0 °F 42.6 °F 28.9 °F 53% 30.00 in 10.0 mi WNW 4.6 mph - N/A   Clear
7:53 PM 37.0 °F 30.4 °F 28.9 °F 73% 30.04 in 10.0 mi West 9.2 mph - N/A   Clear
8:53 PM 39.2 °F 32.5 °F 28.4 °F 65% 30.05 in 10.0 mi West 10.4 mph - N/A   Clear
9:53 PM 39.9 °F 33.4 °F 30.0 °F 68% 30.05 in 10.0 mi WNW 10.4 mph - N/A   Clear
10:53 PM 42.1 °F 36.1 °F 30.9 °F 65% 30.04 in 10.0 mi WNW 10.4 mph - N/A   Clear
11:53 PM 41.0 °F - 32.0 °F 70% 30.06 in 10.0 mi Calm Calm - N/A   Clear